Weather in Golodskoye

Russia / Kaluga Oblast     54°17′33″N   36°11′09″E
temp.,
°C
wind,
m/s
gust,
m/s
humid.,
%
clouds,
%
prec.,
mm/h
press.,
hPa
HPBL,
m
16 april, fri
fri1600:00+10n1187100 0.4 101430
03:00+10ese258890 0.6 1014122
06:00+8e249313 0.0 101580
09:00+13ese3573100 0.0 1016466
12:00+16ese4655100 0.3 10161528
15:00+16ese5852100 1.3 10161703
18:00+11sse138993 6.0 1016100
21:00+10ene3693100 9.8 1016162
17 april, sat
sat1700:00+9e239386 0.4 101884
03:00+7ese118939 0.4 101911
06:00+7ene229094 0.0 101932
09:00+11ne4686100 0.0 1019442
12:00+10ne4888100 1.1 1018627
15:00+8sse3795100 9.1 1017406
18:00+9ese498696 2.2 1017635
21:00+7e2396100 10.7 1018336
18 april, sun
sun1800:00+6se2594100 1.6 1019245
03:00+4ese119480 1.6 102010
06:00+4e229299 0.0 102050
09:00+7ese248384 0.0 1020470
12:00+6se259194 1.5 1021363
15:00+11ese356489 1.9 10201271
18:00+8ene5887100 1.3 1020440
21:00+6e5992100 1.8 1022469
19 april, mon
mon1900:00+6ene4994100 0.1 1021355
03:00+5ene4996100 0.1 1021358
06:00+6ene5993100 0.0 1021428
09:00+7e5987100 0.0 1022596
12:00+11e6865100 0.0 10211278
15:00+12e7864100 0.4 10201296
18:00+10ene61078100 0.2 1020918
21:00+8e71385100 0.4 1019884
20 april, tue
tue2000:00+8e81488100 1.4 1017775
03:00+7e71585100 3.6 1015833
06:00+6e91791100 3.0 1012881
09:00+6e101991100 7.6 1009922
12:00+6e112291100 7.6 10051187
15:00+7ese102191100 13.6 10021265
18:00+8ese102091100 3.4 9991100
21:00+10sse71495100 14.6 998956